Year,Month,Day,Hour,Minute,Value (Times are PST for temperature in C)
2013,08,13,00,00,15.60
2013,08,13,00,01,15.50
2013,08,13,00,02,15.60
2013,08,13,00,03,15.60
2013,08,13,00,04,15.60
2013,08,13,00,05,15.60
2013,08,13,00,06,15.60
2013,08,13,00,07,15.60
2013,08,13,00,08,15.60
2013,08,13,00,09,15.60
2013,08,13,00,10,15.60
2013,08,13,00,11,15.60
2013,08,13,00,12,15.70
2013,08,13,00,13,15.70
2013,08,13,00,14,15.70
2013,08,13,00,15,15.70
2013,08,13,00,16,15.70
2013,08,13,00,17,15.70
2013,08,13,00,18,15.70
2013,08,13,00,19,15.70
2013,08,13,00,20,15.70
2013,08,13,00,21,15.70
2013,08,13,00,22,15.70
2013,08,13,00,23,15.70
2013,08,13,00,24,15.70
2013,08,13,00,25,15.70
2013,08,13,00,26,15.70
2013,08,13,00,27,15.70
2013,08,13,00,28,15.70
2013,08,13,00,29,15.60
2013,08,13,00,30,15.60
2013,08,13,00,31,15.60
2013,08,13,00,32,15.60
2013,08,13,00,33,15.60
2013,08,13,00,34,15.60
2013,08,13,00,35,15.60
2013,08,13,00,36,15.60
2013,08,13,00,37,15.60
2013,08,13,00,38,15.60
2013,08,13,00,39,15.60
2013,08,13,00,40,15.60
2013,08,13,00,41,15.60
2013,08,13,00,42,15.60
2013,08,13,00,43,15.60
2013,08,13,00,44,15.60
2013,08,13,00,45,15.60
2013,08,13,00,46,15.60
2013,08,13,00,47,15.60
2013,08,13,00,48,15.60
2013,08,13,00,49,15.50
2013,08,13,00,50,15.50
2013,08,13,00,51,15.50
2013,08,13,00,52,15.50
2013,08,13,00,53,15.50
2013,08,13,00,54,15.50
2013,08,13,00,55,15.50
2013,08,13,00,56,15.50
2013,08,13,00,57,15.50
2013,08,13,00,58,15.50
2013,08,13,00,59,15.50
2013,08,13,01,00,15.50
2013,08,13,01,01,15.50
2013,08,13,01,02,15.50
2013,08,13,01,03,15.50
2013,08,13,01,04,15.40
2013,08,13,01,05,15.50
2013,08,13,01,06,15.40
2013,08,13,01,07,15.40
2013,08,13,01,08,15.40
2013,08,13,01,09,15.40
2013,08,13,01,10,15.40
2013,08,13,01,11,15.40
2013,08,13,01,12,15.40
2013,08,13,01,13,15.40
2013,08,13,01,14,15.40
2013,08,13,01,15,15.40
2013,08,13,01,16,15.40
2013,08,13,01,17,15.50
2013,08,13,01,18,15.50
2013,08,13,01,19,15.50
2013,08,13,01,20,15.50
2013,08,13,01,21,15.40
2013,08,13,01,22,15.50
2013,08,13,01,23,15.50
2013,08,13,01,24,15.50
2013,08,13,01,25,15.50
2013,08,13,01,26,15.50
2013,08,13,01,27,15.50
2013,08,13,01,28,15.40
2013,08,13,01,29,15.50
2013,08,13,01,30,15.50
2013,08,13,01,31,15.40
2013,08,13,01,32,15.40
2013,08,13,01,33,15.40
2013,08,13,01,34,15.40
2013,08,13,01,35,15.50
2013,08,13,01,36,15.50
2013,08,13,01,37,15.40
2013,08,13,01,38,15.40
2013,08,13,01,39,15.40
2013,08,13,01,40,15.40
2013,08,13,01,41,15.40
2013,08,13,01,42,15.40
2013,08,13,01,43,15.40
2013,08,13,01,44,15.40
2013,08,13,01,45,15.40
2013,08,13,01,46,15.40
2013,08,13,01,47,15.40
2013,08,13,01,48,15.40
2013,08,13,01,49,15.40
2013,08,13,01,50,15.40
2013,08,13,01,51,15.40
2013,08,13,01,52,15.40
2013,08,13,01,53,15.40
2013,08,13,01,54,15.40
2013,08,13,01,55,15.40
2013,08,13,01,56,15.50
2013,08,13,01,57,15.50
2013,08,13,01,58,15.50
2013,08,13,01,59,15.50
2013,08,13,02,00,15.50
2013,08,13,02,01,15.50
2013,08,13,02,02,15.50
2013,08,13,02,03,15.50
2013,08,13,02,04,15.50
2013,08,13,02,05,15.60
2013,08,13,02,06,15.60
2013,08,13,02,07,15.60
2013,08,13,02,08,15.60
2013,08,13,02,09,15.60
2013,08,13,02,10,15.60
2013,08,13,02,11,15.60
2013,08,13,02,12,15.60
2013,08,13,02,13,15.60
2013,08,13,02,14,15.60
2013,08,13,02,15,15.60
2013,08,13,02,16,15.60
2013,08,13,02,17,15.60
2013,08,13,02,18,15.60
2013,08,13,02,19,15.60
2013,08,13,02,20,15.60
2013,08,13,02,21,15.60
2013,08,13,02,22,15.70
2013,08,13,02,23,15.70
2013,08,13,02,24,15.70
2013,08,13,02,25,15.70
2013,08,13,02,26,15.70
2013,08,13,02,27,15.70
2013,08,13,02,28,15.70
2013,08,13,02,29,15.70
2013,08,13,02,30,15.70
2013,08,13,02,31,15.70
2013,08,13,02,32,15.80
2013,08,13,02,33,15.80
2013,08,13,02,34,15.80
2013,08,13,02,35,15.80
2013,08,13,02,36,15.80
2013,08,13,02,37,15.80
2013,08,13,02,38,15.80
2013,08,13,02,39,15.80
2013,08,13,02,40,15.80
2013,08,13,02,41,15.80
2013,08,13,02,42,15.80
2013,08,13,02,43,15.80
2013,08,13,02,44,15.90
2013,08,13,02,45,15.90
2013,08,13,02,46,15.90
2013,08,13,02,47,15.90
2013,08,13,02,48,15.90
2013,08,13,02,49,15.90
2013,08,13,02,50,15.90
2013,08,13,02,51,15.90
2013,08,13,02,52,15.90
2013,08,13,02,53,15.90
2013,08,13,02,54,15.90
2013,08,13,02,55,15.90
2013,08,13,02,56,15.90
2013,08,13,02,57,16.00
2013,08,13,02,58,16.00
2013,08,13,02,59,16.00
2013,08,13,03,00,16.00
2013,08,13,03,01,16.00
2013,08,13,03,02,16.00
2013,08,13,03,03,16.00
2013,08,13,03,04,16.00
2013,08,13,03,05,16.00
2013,08,13,03,06,16.00
2013,08,13,03,07,16.00
2013,08,13,03,08,16.00
2013,08,13,03,09,16.00
2013,08,13,03,10,16.00
2013,08,13,03,11,16.00
2013,08,13,03,12,16.00
2013,08,13,03,13,16.10
2013,08,13,03,14,16.10
2013,08,13,03,15,16.10
2013,08,13,03,16,16.10
2013,08,13,03,17,16.10
2013,08,13,03,18,16.10
2013,08,13,03,19,16.10
2013,08,13,03,20,16.10
2013,08,13,03,21,16.10
2013,08,13,03,22,16.10
2013,08,13,03,23,16.10
2013,08,13,03,24,16.10
2013,08,13,03,25,16.10
2013,08,13,03,26,16.10
2013,08,13,03,27,16.10
2013,08,13,03,28,16.10
2013,08,13,03,29,16.10
2013,08,13,03,30,16.10
2013,08,13,03,31,16.10
2013,08,13,03,32,16.10
2013,08,13,03,33,16.10
2013,08,13,03,34,16.10
2013,08,13,03,35,16.10
2013,08,13,03,36,16.10
2013,08,13,03,37,16.10
2013,08,13,03,38,16.10
2013,08,13,03,39,16.10
2013,08,13,03,40,16.10
2013,08,13,03,41,16.10
2013,08,13,03,42,16.10
2013,08,13,03,43,16.10
2013,08,13,03,44,16.10
2013,08,13,03,45,16.10
2013,08,13,03,46,16.10
2013,08,13,03,47,16.10
2013,08,13,03,48,16.10
2013,08,13,03,49,16.10
2013,08,13,03,50,16.10
2013,08,13,03,51,16.10
2013,08,13,03,52,16.10
2013,08,13,03,53,16.10
2013,08,13,03,54,16.10
2013,08,13,03,55,16.10
2013,08,13,03,56,16.10
2013,08,13,03,57,16.10
2013,08,13,03,58,16.10
2013,08,13,03,59,16.10
2013,08,13,04,00,16.10
2013,08,13,04,01,16.10
2013,08,13,04,02,16.10
2013,08,13,04,03,16.10
2013,08,13,04,04,16.10
2013,08,13,04,05,16.10
2013,08,13,04,06,16.10
2013,08,13,04,07,16.10
2013,08,13,04,08,16.10
2013,08,13,04,09,16.10
2013,08,13,04,10,16.10
2013,08,13,04,11,16.10
2013,08,13,04,12,16.10
2013,08,13,04,13,16.10
2013,08,13,04,14,16.10
2013,08,13,04,15,16.10
2013,08,13,04,16,16.10
2013,08,13,04,17,16.10
2013,08,13,04,18,16.10
2013,08,13,04,19,16.10
2013,08,13,04,20,16.10
2013,08,13,04,21,16.10
2013,08,13,04,22,16.10
2013,08,13,04,23,16.10
2013,08,13,04,24,16.20
2013,08,13,04,25,16.20
2013,08,13,04,26,16.20
2013,08,13,04,27,16.20
2013,08,13,04,28,16.20
2013,08,13,04,29,16.20
2013,08,13,04,30,16.20
2013,08,13,04,31,16.20
2013,08,13,04,32,16.20
2013,08,13,04,33,16.20
2013,08,13,04,34,16.20
2013,08,13,04,35,16.20
2013,08,13,04,36,16.20
2013,08,13,04,37,16.20
2013,08,13,04,38,16.20
2013,08,13,04,39,16.20
2013,08,13,04,40,16.20
2013,08,13,04,41,16.30
2013,08,13,04,42,16.30
2013,08,13,04,43,16.30
2013,08,13,04,44,16.30
2013,08,13,04,45,16.30
2013,08,13,04,46,16.30
2013,08,13,04,47,16.30
2013,08,13,04,48,16.30
2013,08,13,04,49,16.30
2013,08,13,04,50,16.30
2013,08,13,04,51,16.30
2013,08,13,04,52,16.30
2013,08,13,04,53,16.30
2013,08,13,04,54,16.30
2013,08,13,04,55,16.30
2013,08,13,04,56,16.30
2013,08,13,04,57,16.30
2013,08,13,04,58,16.30
2013,08,13,04,59,16.30
2013,08,13,05,00,16.30
2013,08,13,05,01,16.40
2013,08,13,05,02,16.40
2013,08,13,05,03,16.40
2013,08,13,05,04,16.40
2013,08,13,05,05,16.40
2013,08,13,05,06,16.40
2013,08,13,05,07,16.40
2013,08,13,05,08,16.40
2013,08,13,05,09,16.40
2013,08,13,05,10,16.40
2013,08,13,05,11,16.40
2013,08,13,05,12,16.40
2013,08,13,05,13,16.40
2013,08,13,05,14,16.40
2013,08,13,05,15,16.40
2013,08,13,05,16,16.40
2013,08,13,05,17,16.40
2013,08,13,05,18,16.40
2013,08,13,05,19,16.40
2013,08,13,05,20,16.40
2013,08,13,05,21,16.40
2013,08,13,05,22,16.40
2013,08,13,05,23,16.40
2013,08,13,05,24,16.40
2013,08,13,05,25,16.40
2013,08,13,05,26,16.40
2013,08,13,05,27,16.40
2013,08,13,05,28,16.40
2013,08,13,05,29,16.40
2013,08,13,05,30,16.40
2013,08,13,05,31,16.40
2013,08,13,05,32,16.40
2013,08,13,05,33,16.40
2013,08,13,05,34,16.40
2013,08,13,05,35,16.40
2013,08,13,05,36,16.40
2013,08,13,05,37,16.40
2013,08,13,05,38,16.40
2013,08,13,05,39,16.40
2013,08,13,05,40,16.40
2013,08,13,05,41,16.50
2013,08,13,05,42,16.50
2013,08,13,05,43,16.50
2013,08,13,05,44,16.50
2013,08,13,05,45,16.50
2013,08,13,05,46,16.50
2013,08,13,05,47,16.50
2013,08,13,05,48,16.50
2013,08,13,05,49,16.50
2013,08,13,05,50,16.50
2013,08,13,05,51,16.50
2013,08,13,05,52,16.50
2013,08,13,05,53,16.50
2013,08,13,05,54,16.50
2013,08,13,05,55,16.50
2013,08,13,05,56,16.60
2013,08,13,05,57,16.50
2013,08,13,05,58,16.50
2013,08,13,05,59,16.50
2013,08,13,06,00,16.60
2013,08,13,06,01,16.50
2013,08,13,06,02,16.60
2013,08,13,06,03,16.60
2013,08,13,06,04,16.60
2013,08,13,06,05,16.60
2013,08,13,06,06,16.60
2013,08,13,06,07,16.60
2013,08,13,06,08,16.60
2013,08,13,06,09,16.60
2013,08,13,06,10,16.60
2013,08,13,06,11,16.60
2013,08,13,06,12,16.60
2013,08,13,06,13,16.60
2013,08,13,06,14,16.60
2013,08,13,06,15,16.60
2013,08,13,06,16,16.60
2013,08,13,06,17,16.60
2013,08,13,06,18,16.60
2013,08,13,06,19,16.60
2013,08,13,06,20,16.60
2013,08,13,06,21,16.70
2013,08,13,06,22,16.70
2013,08,13,06,23,16.70
2013,08,13,06,24,16.70
2013,08,13,06,25,16.70
2013,08,13,06,26,16.70
2013,08,13,06,27,16.70
2013,08,13,06,28,16.70
2013,08,13,06,29,16.70
2013,08,13,06,30,16.70
2013,08,13,06,31,16.70
2013,08,13,06,32,16.70
2013,08,13,06,33,16.70
2013,08,13,06,34,16.80
2013,08,13,06,35,16.80
2013,08,13,06,36,16.80
2013,08,13,06,37,16.80
2013,08,13,06,38,16.80
2013,08,13,06,39,16.80
2013,08,13,06,40,16.80
2013,08,13,06,41,16.80
2013,08,13,06,42,16.80
2013,08,13,06,43,16.80
2013,08,13,06,44,16.80
2013,08,13,06,45,16.80
2013,08,13,06,46,16.80
2013,08,13,06,47,16.80
2013,08,13,06,48,16.80
2013,08,13,06,49,16.80
2013,08,13,06,50,16.80
2013,08,13,06,51,16.90
2013,08,13,06,52,16.80
2013,08,13,06,53,16.90
2013,08,13,06,54,16.90
2013,08,13,06,55,16.90
2013,08,13,06,56,16.90
2013,08,13,06,57,16.90
2013,08,13,06,58,16.90
2013,08,13,06,59,16.90
2013,08,13,07,00,16.90
2013,08,13,07,01,16.90
2013,08,13,07,02,16.90
2013,08,13,07,03,16.90
2013,08,13,07,04,16.90
2013,08,13,07,05,16.90
2013,08,13,07,06,16.90
2013,08,13,07,07,16.90
2013,08,13,07,08,16.90
2013,08,13,07,09,16.90
2013,08,13,07,10,16.90
2013,08,13,07,11,16.90
2013,08,13,07,12,16.90
2013,08,13,07,13,16.90
2013,08,13,07,14,16.90
2013,08,13,07,15,16.90
2013,08,13,07,16,17.00
2013,08,13,07,17,16.90
2013,08,13,07,18,17.00
2013,08,13,07,19,17.00
2013,08,13,07,20,17.00
2013,08,13,07,21,17.00
2013,08,13,07,22,17.00
2013,08,13,07,23,17.10
2013,08,13,07,24,17.10
2013,08,13,07,25,17.10
2013,08,13,07,26,17.10
2013,08,13,07,27,17.10
2013,08,13,07,28,17.10
2013,08,13,07,29,17.10
2013,08,13,07,30,17.10
2013,08,13,07,31,17.10
2013,08,13,07,32,17.10
2013,08,13,07,33,17.10
2013,08,13,07,34,17.10
2013,08,13,07,35,17.20
2013,08,13,07,36,17.20
2013,08,13,07,37,17.20
2013,08,13,07,38,17.20
2013,08,13,07,39,17.20
2013,08,13,07,40,17.20
2013,08,13,07,41,17.20
2013,08,13,07,42,17.20
2013,08,13,07,43,17.20
2013,08,13,07,44,17.20
2013,08,13,07,45,17.20
2013,08,13,07,46,17.20
2013,08,13,07,47,17.20
2013,08,13,07,48,17.20
2013,08,13,07,49,17.20
2013,08,13,07,50,17.20
2013,08,13,07,51,17.20
2013,08,13,07,52,17.30
2013,08,13,07,53,17.30
2013,08,13,07,54,17.30
2013,08,13,07,55,17.30
2013,08,13,07,56,17.30
2013,08,13,07,57,17.30
2013,08,13,07,58,17.30
2013,08,13,07,59,17.30
2013,08,13,08,00,17.30
2013,08,13,08,01,17.30
2013,08,13,08,02,17.30
2013,08,13,08,03,17.40
2013,08,13,08,04,17.40
2013,08,13,08,05,17.40
2013,08,13,08,06,17.40
2013,08,13,08,07,17.40
2013,08,13,08,08,17.40
2013,08,13,08,09,17.40
2013,08,13,08,10,17.40
2013,08,13,08,11,17.50
2013,08,13,08,12,17.50
2013,08,13,08,13,17.50
2013,08,13,08,14,17.50
2013,08,13,08,15,17.50
2013,08,13,08,16,17.50
2013,08,13,08,17,17.50
2013,08,13,08,18,17.60
2013,08,13,08,19,17.60
2013,08,13,08,20,17.60
2013,08,13,08,21,17.60
2013,08,13,08,22,17.60
2013,08,13,08,23,17.60
2013,08,13,08,24,17.70
2013,08,13,08,25,17.70
2013,08,13,08,26,17.70
2013,08,13,08,27,17.70
2013,08,13,08,28,17.70
2013,08,13,08,29,17.80
2013,08,13,08,30,17.80
2013,08,13,08,31,17.80
2013,08,13,08,32,17.80
2013,08,13,08,33,17.80
2013,08,13,08,34,17.80
2013,08,13,08,35,17.90
2013,08,13,08,36,17.90
2013,08,13,08,37,17.90
2013,08,13,08,38,17.90
2013,08,13,08,39,17.90
2013,08,13,08,40,18.00
2013,08,13,08,41,18.00
2013,08,13,08,42,18.00
2013,08,13,08,43,18.00
2013,08,13,08,44,18.00
2013,08,13,08,45,18.00
2013,08,13,08,46,18.00
2013,08,13,08,47,18.00
2013,08,13,08,48,18.00
2013,08,13,08,49,18.00
2013,08,13,08,50,18.10
2013,08,13,08,51,18.10
2013,08,13,08,52,18.10
2013,08,13,08,53,18.10
2013,08,13,08,54,18.10
2013,08,13,08,55,18.10
2013,08,13,08,56,18.20
2013,08,13,08,57,18.20
2013,08,13,08,58,18.20
2013,08,13,08,59,18.20
2013,08,13,09,00,18.20
2013,08,13,09,01,18.20
2013,08,13,09,02,18.20
2013,08,13,09,03,18.20
2013,08,13,09,04,18.20
2013,08,13,09,05,18.20
2013,08,13,09,06,18.20
2013,08,13,09,07,18.20
2013,08,13,09,08,18.20
2013,08,13,09,09,18.20
2013,08,13,09,10,18.20
2013,08,13,09,11,18.20
2013,08,13,09,12,18.20
2013,08,13,09,13,18.20
2013,08,13,09,14,18.20
2013,08,13,09,15,18.20
2013,08,13,09,16,18.20
2013,08,13,09,17,18.20
2013,08,13,09,18,18.20
2013,08,13,09,19,18.20
2013,08,13,09,20,18.20
2013,08,13,09,21,18.20
2013,08,13,09,22,18.20
2013,08,13,09,23,18.20
2013,08,13,09,24,18.20
2013,08,13,09,25,18.20
2013,08,13,09,26,18.20
2013,08,13,09,27,18.20
2013,08,13,09,28,18.20
2013,08,13,09,29,18.20
2013,08,13,09,30,18.20
2013,08,13,09,31,18.20
2013,08,13,09,32,18.20
2013,08,13,09,33,18.20
2013,08,13,09,34,18.20
2013,08,13,09,35,18.10
2013,08,13,09,36,18.10
2013,08,13,09,37,18.10
2013,08,13,09,38,18.10
2013,08,13,09,39,18.10
2013,08,13,09,40,18.10
2013,08,13,09,41,18.10
2013,08,13,09,42,18.10
2013,08,13,09,43,18.10
2013,08,13,09,44,18.20
2013,08,13,09,45,18.20
2013,08,13,09,46,18.20
2013,08,13,09,47,18.20
2013,08,13,09,48,18.30
2013,08,13,09,49,18.30
2013,08,13,09,50,18.30
2013,08,13,09,51,18.40
2013,08,13,09,52,18.40
2013,08,13,09,53,18.40
2013,08,13,09,54,18.40
2013,08,13,09,55,18.50
2013,08,13,09,56,18.50
2013,08,13,09,57,18.50
2013,08,13,09,58,18.60
2013,08,13,09,59,18.60
2013,08,13,10,00,18.60
2013,08,13,10,01,18.60
2013,08,13,10,02,18.60
2013,08,13,10,03,18.70
2013,08,13,10,04,18.70
2013,08,13,10,05,18.70
2013,08,13,10,06,18.70
2013,08,13,10,07,18.70
2013,08,13,10,08,18.70
2013,08,13,10,09,18.70
2013,08,13,10,10,18.70
2013,08,13,10,11,18.70
2013,08,13,10,12,18.70
2013,08,13,10,13,18.80
2013,08,13,10,14,18.80
2013,08,13,10,15,18.80
2013,08,13,10,16,18.90
2013,08,13,10,17,18.90
2013,08,13,10,18,18.90
2013,08,13,10,19,18.90
2013,08,13,10,20,19.00
2013,08,13,10,21,19.00
2013,08,13,10,22,19.00
2013,08,13,10,23,19.10
2013,08,13,10,24,19.10
2013,08,13,10,25,19.10
2013,08,13,10,26,19.10
2013,08,13,10,27,19.20
2013,08,13,10,28,19.20
2013,08,13,10,29,19.20
2013,08,13,10,30,19.20
2013,08,13,10,31,19.20
2013,08,13,10,32,19.20
2013,08,13,10,33,19.20
2013,08,13,10,34,19.20
2013,08,13,10,35,19.30
2013,08,13,10,36,19.30
2013,08,13,10,37,19.30
2013,08,13,10,38,19.30
2013,08,13,10,39,19.30
2013,08,13,10,40,19.40
2013,08,13,10,41,19.50
2013,08,13,10,42,19.50
2013,08,13,10,43,19.60
2013,08,13,10,44,19.70
2013,08,13,10,45,19.80
2013,08,13,10,46,19.90
2013,08,13,10,47,19.90
2013,08,13,10,48,20.00
2013,08,13,10,49,20.00
2013,08,13,10,50,20.00
2013,08,13,10,51,20.10
2013,08,13,10,52,20.20
2013,08,13,10,53,20.30
2013,08,13,10,54,20.40
2013,08,13,10,55,20.50
2013,08,13,10,56,20.60
2013,08,13,10,57,20.70
2013,08,13,10,58,20.80
2013,08,13,10,59,20.80
2013,08,13,11,00,20.90
2013,08,13,11,01,20.90
2013,08,13,11,02,20.90
2013,08,13,11,03,20.90
2013,08,13,11,04,20.90
2013,08,13,11,05,20.90
2013,08,13,11,06,20.90
2013,08,13,11,07,20.90
2013,08,13,11,08,20.90
2013,08,13,11,09,20.90
2013,08,13,11,10,20.90
2013,08,13,11,11,21.00
2013,08,13,11,12,21.00
2013,08,13,11,13,21.10
2013,08,13,11,14,21.10
2013,08,13,11,15,21.10
2013,08,13,11,16,21.10
2013,08,13,11,17,21.10
2013,08,13,11,18,21.10
2013,08,13,11,19,21.10
2013,08,13,11,20,21.10
2013,08,13,11,21,21.20
2013,08,13,11,22,21.20
2013,08,13,11,23,21.20
2013,08,13,11,24,21.20
2013,08,13,11,25,21.20
2013,08,13,11,26,21.20
2013,08,13,11,27,21.10
2013,08,13,11,28,21.10
2013,08,13,11,29,21.00
2013,08,13,11,30,21.00
2013,08,13,11,31,20.90
2013,08,13,11,32,20.90
2013,08,13,11,33,20.80
2013,08,13,11,34,20.80
2013,08,13,11,35,20.80
2013,08,13,11,36,20.70
2013,08,13,11,37,20.70
2013,08,13,11,38,20.70
2013,08,13,11,39,20.60
2013,08,13,11,40,20.60
2013,08,13,11,41,20.60
2013,08,13,11,42,20.60
2013,08,13,11,43,20.60
2013,08,13,11,44,20.70
2013,08,13,11,45,20.70
2013,08,13,11,46,20.70
2013,08,13,11,47,20.80
2013,08,13,11,48,20.70
2013,08,13,11,49,20.70
2013,08,13,11,50,20.70
2013,08,13,11,51,20.60
2013,08,13,11,52,20.60
2013,08,13,11,53,20.60
2013,08,13,11,54,20.60
2013,08,13,11,55,20.50
2013,08,13,11,56,20.40
2013,08,13,11,57,20.40
2013,08,13,11,58,20.40
2013,08,13,11,59,20.40
2013,08,13,12,00,20.40
2013,08,13,12,01,20.40
2013,08,13,12,02,20.40
2013,08,13,12,03,20.40
2013,08,13,12,04,20.40
2013,08,13,12,05,20.50
2013,08,13,12,06,20.60
2013,08,13,12,07,20.60
2013,08,13,12,08,20.70
2013,08,13,12,09,20.70
2013,08,13,12,10,20.70
2013,08,13,12,11,20.80
2013,08,13,12,12,20.80
2013,08,13,12,13,20.80
2013,08,13,12,14,20.80
2013,08,13,12,15,20.70
2013,08,13,12,16,20.70
2013,08,13,12,17,20.70
2013,08,13,12,18,20.70
2013,08,13,12,19,20.80
2013,08,13,12,20,20.80
2013,08,13,12,21,20.90
2013,08,13,12,22,21.00
2013,08,13,12,23,21.10
2013,08,13,12,24,21.20
2013,08,13,12,25,21.20
2013,08,13,12,26,21.30
2013,08,13,12,27,21.30
2013,08,13,12,28,21.40
2013,08,13,12,29,21.50
2013,08,13,12,30,21.50
2013,08,13,12,31,21.60
2013,08,13,12,32,21.60
2013,08,13,12,33,21.50
2013,08,13,12,34,21.50
2013,08,13,12,35,21.40
2013,08,13,12,36,21.50
2013,08,13,12,37,21.60
2013,08,13,12,38,21.70
2013,08,13,12,39,21.80
2013,08,13,12,40,21.90
2013,08,13,12,41,22.00
2013,08,13,12,42,22.10
2013,08,13,12,43,22.10
2013,08,13,12,44,22.20
2013,08,13,12,45,22.20
2013,08,13,12,46,22.20
2013,08,13,12,47,22.20
2013,08,13,12,48,22.30
2013,08,13,12,49,22.30
2013,08,13,12,50,22.30
2013,08,13,12,51,22.20
2013,08,13,12,52,22.10
2013,08,13,12,53,22.10
2013,08,13,12,54,22.00
2013,08,13,12,55,22.00
2013,08,13,12,56,22.00
2013,08,13,12,57,21.90
2013,08,13,12,58,22.00
2013,08,13,12,59,22.10
2013,08,13,13,00,22.10
2013,08,13,13,01,22.20
2013,08,13,13,02,22.30
2013,08,13,13,03,22.30
2013,08,13,13,04,22.40
2013,08,13,13,05,22.50
2013,08,13,13,06,22.60
2013,08,13,13,07,22.50
2013,08,13,13,08,22.50
2013,08,13,13,09,22.40
2013,08,13,13,10,22.40
2013,08,13,13,11,22.30
2013,08,13,13,12,22.30
2013,08,13,13,13,22.30
2013,08,13,13,14,22.20
2013,08,13,13,15,22.20
2013,08,13,13,16,22.20
2013,08,13,13,17,22.30
2013,08,13,13,18,22.30
2013,08,13,13,19,22.30
2013,08,13,13,20,22.40
2013,08,13,13,21,22.40
2013,08,13,13,22,22.40
2013,08,13,13,23,22.40
2013,08,13,13,24,22.30
2013,08,13,13,25,22.30
2013,08,13,13,26,22.30
2013,08,13,13,27,22.40
2013,08,13,13,28,22.50
2013,08,13,13,29,22.50
2013,08,13,13,30,22.50
2013,08,13,13,31,22.50
2013,08,13,13,32,22.50
2013,08,13,13,33,22.50
2013,08,13,13,34,22.50
2013,08,13,13,35,22.50
2013,08,13,13,36,22.50
2013,08,13,13,37,22.40
2013,08,13,13,38,22.40
2013,08,13,13,39,22.40
2013,08,13,13,40,22.40
2013,08,13,13,41,22.40
2013,08,13,13,42,22.50
2013,08,13,13,43,22.50
2013,08,13,13,44,22.60
2013,08,13,13,45,22.60
2013,08,13,13,46,22.70
2013,08,13,13,47,22.70
2013,08,13,13,48,22.70
2013,08,13,13,49,22.70
2013,08,13,13,50,22.70
2013,08,13,13,51,22.60
2013,08,13,13,52,22.50
2013,08,13,13,53,22.50
2013,08,13,13,54,22.50
2013,08,13,13,55,22.50
2013,08,13,13,56,22.50
2013,08,13,13,57,22.50
2013,08,13,13,58,22.50
2013,08,13,13,59,22.50
2013,08,13,14,00,22.50
2013,08,13,14,01,22.50
2013,08,13,14,02,22.50
2013,08,13,14,03,22.50
2013,08,13,14,04,22.60
2013,08,13,14,05,22.60
2013,08,13,14,06,22.60
2013,08,13,14,07,22.60
2013,08,13,14,08,22.60
2013,08,13,14,09,22.60
2013,08,13,14,10,22.70
2013,08,13,14,11,22.80
2013,08,13,14,12,22.80
2013,08,13,14,13,22.80
2013,08,13,14,14,22.80
2013,08,13,14,15,22.80
2013,08,13,14,16,22.80
2013,08,13,14,17,22.80
2013,08,13,14,18,22.80
2013,08,13,14,19,22.70
2013,08,13,14,20,22.70
2013,08,13,14,21,22.70
2013,08,13,14,22,22.70
2013,08,13,14,23,22.80
2013,08,13,14,24,22.90
2013,08,13,14,25,23.00
2013,08,13,14,26,23.00
2013,08,13,14,27,23.10
2013,08,13,14,28,23.10
2013,08,13,14,29,23.10
2013,08,13,14,30,23.10
2013,08,13,14,31,23.00
2013,08,13,14,32,22.90
2013,08,13,14,33,22.80
2013,08,13,14,34,22.70
2013,08,13,14,35,22.70
2013,08,13,14,36,22.70
2013,08,13,14,37,22.70
2013,08,13,14,38,22.60
2013,08,13,14,39,22.60
2013,08,13,14,40,22.70
2013,08,13,14,41,22.70
2013,08,13,14,42,22.70
2013,08,13,14,43,22.80
2013,08,13,14,44,22.90
2013,08,13,14,45,23.00
2013,08,13,14,46,23.00
2013,08,13,14,47,23.10
2013,08,13,14,48,23.10
2013,08,13,14,49,23.20
2013,08,13,14,50,23.30
2013,08,13,14,51,23.30
2013,08,13,14,52,23.30
2013,08,13,14,53,23.30
2013,08,13,14,54,23.30
2013,08,13,14,55,23.30
2013,08,13,14,56,23.30
2013,08,13,14,57,23.30
2013,08,13,14,58,23.30
2013,08,13,14,59,23.20
2013,08,13,15,00,23.20
2013,08,13,15,01,23.20
2013,08,13,15,02,23.20
2013,08,13,15,03,23.20
2013,08,13,15,04,23.20
2013,08,13,15,05,23.30
2013,08,13,15,06,23.30
2013,08,13,15,07,23.30
2013,08,13,15,08,23.30
2013,08,13,15,09,23.40
2013,08,13,15,10,23.40
2013,08,13,15,11,23.50
2013,08,13,15,12,23.60
2013,08,13,15,13,23.70
2013,08,13,15,14,23.60
2013,08,13,15,15,23.60
2013,08,13,15,16,23.60
2013,08,13,15,17,23.70
2013,08,13,15,18,23.80
2013,08,13,15,19,23.80
2013,08,13,15,20,23.70
2013,08,13,15,21,23.60
2013,08,13,15,22,23.60
2013,08,13,15,23,23.50
2013,08,13,15,24,23.50
2013,08,13,15,25,23.40
2013,08,13,15,26,23.30
2013,08,13,15,27,23.30
2013,08,13,15,28,23.30
2013,08,13,15,29,23.30
2013,08,13,15,30,23.20
2013,08,13,15,31,23.20
2013,08,13,15,32,23.10
2013,08,13,15,33,23.10
2013,08,13,15,34,23.10
2013,08,13,15,35,23.10
2013,08,13,15,36,23.10
2013,08,13,15,37,23.10
2013,08,13,15,38,23.10
2013,08,13,15,39,23.10
2013,08,13,15,40,23.10
2013,08,13,15,41,23.10
2013,08,13,15,42,23.20
2013,08,13,15,43,23.20
2013,08,13,15,44,23.30
2013,08,13,15,45,23.40
2013,08,13,15,46,23.50
2013,08,13,15,47,23.50
2013,08,13,15,48,23.60
2013,08,13,15,49,23.60
2013,08,13,15,50,23.70
2013,08,13,15,51,23.70
2013,08,13,15,52,23.70
2013,08,13,15,53,23.80
2013,08,13,15,54,23.90
2013,08,13,15,55,24.00
2013,08,13,15,56,24.20
2013,08,13,15,57,24.30
2013,08,13,15,58,24.30
2013,08,13,15,59,24.30
2013,08,13,16,00,24.30
2013,08,13,16,01,24.40
2013,08,13,16,02,24.40
2013,08,13,16,03,24.30
2013,08,13,16,04,24.30
2013,08,13,16,05,24.30
2013,08,13,16,06,24.30
2013,08,13,16,07,24.30
2013,08,13,16,08,24.30
2013,08,13,16,09,24.30
2013,08,13,16,10,24.20
2013,08,13,16,11,24.20
2013,08,13,16,12,24.20
2013,08,13,16,13,24.20
2013,08,13,16,14,24.30
2013,08,13,16,15,24.30
2013,08,13,16,16,24.30
2013,08,13,16,17,24.30
2013,08,13,16,18,24.30
2013,08,13,16,19,24.30
2013,08,13,16,20,24.30
2013,08,13,16,21,24.30
2013,08,13,16,22,24.30
2013,08,13,16,23,24.30
2013,08,13,16,24,24.30
2013,08,13,16,25,24.30
2013,08,13,16,26,24.30
2013,08,13,16,27,24.40
2013,08,13,16,28,24.50
2013,08,13,16,29,24.50
2013,08,13,16,30,24.60
2013,08,13,16,31,24.60
2013,08,13,16,32,24.70
2013,08,13,16,33,24.80
2013,08,13,16,34,24.80
2013,08,13,16,35,24.80
2013,08,13,16,36,24.80
2013,08,13,16,37,24.80
2013,08,13,16,38,24.80
2013,08,13,16,39,24.80
2013,08,13,16,40,24.80
2013,08,13,16,41,24.70
2013,08,13,16,42,24.60
2013,08,13,16,43,24.50
2013,08,13,16,44,24.40
2013,08,13,16,45,24.40
2013,08,13,16,46,24.40
2013,08,13,16,47,24.30
2013,08,13,16,48,24.30
2013,08,13,16,49,24.30
2013,08,13,16,50,24.20
2013,08,13,16,51,24.20
2013,08,13,16,52,24.30
2013,08,13,16,53,24.30
2013,08,13,16,54,24.40
2013,08,13,16,55,24.40
2013,08,13,16,56,24.50
2013,08,13,16,57,24.50
2013,08,13,16,58,24.50
2013,08,13,16,59,24.60
2013,08,13,17,00,24.60
2013,08,13,17,01,24.70
2013,08,13,17,02,24.70
2013,08,13,17,03,24.80
2013,08,13,17,04,24.80
2013,08,13,17,05,24.80
2013,08,13,17,06,24.80
2013,08,13,17,07,24.80
2013,08,13,17,08,24.80
2013,08,13,17,09,24.80
2013,08,13,17,10,24.80
2013,08,13,17,11,24.80
2013,08,13,17,12,24.90
2013,08,13,17,13,24.90
2013,08,13,17,14,24.90
2013,08,13,17,15,24.90
2013,08,13,17,16,24.90
2013,08,13,17,17,24.90
2013,08,13,17,18,24.80
2013,08,13,17,19,24.80